Wind_Speed
8 9 10 11 12 13 14 14 15 16 16 17 17 16 15 13 11 9 8 7 6 5 3 3 3 4 6 8 10 13 15 18 19 20 19 17 16 15 14 12 11 11 10
7 8 9 9 11 12 12 13 14 15 16 17 17 17 16 15 13 11 10 8 7 6 5 3 2 3 4 5 7 9 12 14 16 16 16 16 15 15 15 14 13 12 11
7 7 7 8 9 9 10 11 12 13 14 15 16 17 16 16 15 13 12 10 8 7 6 4 3 2 3 4 5 7 9 9 12 13 14 15 15 16 15 14 13 13 12
6 6 6 7 7 7 8 9 10 11 13 14 15 16 16 16 16 15 13 11 9 7 6 5 4 2 1 3 4 6 7 7 9 9 10 11 12 13 13 12 12 11 10
5 5 6 6 6 6 6 7 7 8 10 11 13 14 15 15 15 15 15 13 11 9 7 6 5 4 2 1 3 5 6 5 6 6 5 6 6 7 8 9 9 8 9
4 4 5 5 5 5 5 5 5 5 6 7 9 11 12 13 14 14 14 14 13 11 10 8 7 6 4 3 2 3 4 5 5 4 3 2 2 3 4 4 4 5 6
4 4 4 5 5 5 5 4 3 2 2 3 4 6 7 10 11 11 12 12 12 12 12 11 10 9 7 5 4 2 3 5 5 4 3 2 1 1 1 1 2 2 3
4 4 4 4 5 5 5 5 4 3 2 2 3 3 2 4 6 7 8 9 10 11 12 12 12 11 9 7 6 4 3 3 4 3 3 1 1 1 0 0 1 2 2
4 5 5 5 5 5 5 5 5 5 5 5 5 5 5 4 3 3 4 6 6 7 9 10 11 11 10 9 7 5 3 1 2 2 2 1 1 2 2 2 2 2 1
4 6 6 7 6 6 6 6 6 7 7 7 7 8 8 8 7 6 5 4 4 5 6 7 8 9 9 9 8 5 3 1 0 1 2 2 3 3 4 3 3 3 3
4 6 7 8 8 8 8 8 8 8 9 9 9 9 10 10 10 9 8 7 6 6 6 6 6 7 8 8 8 7 4 3 2 1 2 3 4 4 4 4 4 4 4
4 5 6 7 8 8 8 9 10 10 11 11 11 12 12 13 12 12 11 11 10 9 8 8 7 7 7 8 7 7 5 5 4 3 3 4 5 4 4 4 4 4 4
7 7 7 7 7 7 7 8 10 11 12 13 13 14 15 16 15 15 15 14 13 13 12 12 11 9 9 9 8 8 8 8 7 5 5 6 6 6 5 5 5 5 5
10 9 9 9 9 9 8 8 9 10 11 12 14 15 17 18 18 18 18 17 16 16 16 16 15 14 11 10 10 10 10 10 9 8 8 8 8 9 9 9 8 8 8
15 14 12 12 12 12 11 12 12 11 11 12 13 14 16 19 20 20 20 20 19 19 19 19 19 18 15 13 13 13 13 13 12 12 11 10 10 11 11 12 12 12 13
20 18 17 15 15 15 14 14 15 14 14 14 14 15 16 18 20 22 22 22 23 22 22 21 21 20 19 16 16 16 16 16 15 14 13 12 12 12 13 13 13 14 15
24 23 21 20 19 18 18 17 17 17 17 17 17 17 18 18 20 22 23 23 25 25 24 23 22 21 20 19 18 19 19 19 18 16 15 14 14 15 15 15 16 16 17
29 28 26 25 23 22 22 21 20 20 21 20 20 19 20 21 21 22 23 24 25 25 25 23 23 23 23 22 21 21 21 20 20 18 17 17 16 17 17 17 18 19 19
33 33 32 30 28 27 26 24 24 24 24 25 24 23 23 24 24 24 24 24 25 25 25 24 24 24 25 25 24 23 22 22 21 21 20 19 18 18 18 18 19 20 21
38 38 37 36 34 32 31 29 28 28 28 28 29 29 27 27 27 27 26 26 26 25 25 25 25 25 27 27 26 25 24 23 23 22 22 21 20 20 20 20 20 21 22
42 42 41 40 39 38 37 35 33 32 31 32 33 34 32 30 30 30 29 28 27 27 26 25 25 26 27 28 27 27 26 25 25 24 23 22 21 21 21 21 21 22 22
44 44 44 43 43 42 40 39 37 35 35 35 35 35 35 33 32 32 31 29 28 28 28 26 25 25 25 26 27 28 28 27 27 26 26 24 21 22 22 23 23 22 22
43 44 43 43 43 42 41 40 39 37 36 35 36 35 35 35 34 31 31 29 28 27 26 25 24 23 24 25 26 28 29 29 28 28 27 26 23 22 23 23 22 22 23
44 43 42 42 41 41 40 39 38 37 36 35 35 33 34 33 33 30 29 28 27 26 25 24 24 23 23 25 27 29 30 30 30 29 28 27 25 24 23 22 21 22 23
42 42 41 40 40 39 39 38 36 35 34 33 32 32 32 32 32 31 30 30 28 26 25 24 23 23 24 24 26 29 31 31 31 31 30 28 26 25 24 22 20 21 22
36 38 39 38 38 38 37 36 35 34 33 32 32 31 31 32 32 32 32 31 29 27 26 25 24 23 24 25 26 29 31 32 33 32 30 29 26 25 25 24 22 20 20
Wind_Direction
83 83 82 79 81 82 79 75 71 69 66 63 62 60 61 62 65 67 68 71 75 80 87 112 145 167 188 200 212 220 220 221 220 219 222 227 230 233 238 245 253 259 267
91 93 93 89 88 87 83 79 74 71 68 65 63 62 62 63 65 67 68 72 74 75 76 90 140 165 188 203 210 216 217 217 219 220 225 231 234 237 243 248 255 259 263
101 105 105 100 96 94 89 83 78 74 71 68 66 64 64 64 64 66 68 73 77 78 77 82 101 152 184 198 206 201 204 214 219 223 227 234 239 241 245 251 254 256 259
111 118 118 114 107 103 100 93 85 79 76 73 70 68 66 65 64 64 67 70 74 78 78 76 78 87 162 204 202 191 193 204 213 216 230 241 242 243 245 249 250 256 260
123 129 132 133 127 119 115 107 97 86 81 77 75 71 68 66 63 63 63 66 68 70 71 71 69 65 75 157 189 190 194 200 206 207 226 234 236 240 239 244 248 253 260
147 142 144 150 151 145 137 130 116 95 83 77 74 72 70 67 64 63 62 62 62 63 63 64 63 61 67 83 141 191 204 210 201 192 190 178 198 221 224 232 241 252 259
182 166 161 163 169 173 175 172 167 146 86 64 57 62 67 67 64 62 61 60 59 58 57 57 58 58 60 68 80 127 182 203 197 191 178 159 91 123 186 213 251 257 265
212 200 192 187 185 188 197 208 220 233 256 298 326 342 15 46 53 53 56 57 56 55 53 52 53 54 57 61 69 87 131 177 193 196 198 198 146 87 106 306 274 257 266
231 230 225 224 218 213 217 228 240 252 263 277 290 294 296 305 332 2 27 39 43 47 48 45 46 46 47 51 58 70 89 128 188 214 236 256 290 313 322 306 297 280 280
244 244 242 244 245 243 243 247 253 259 267 275 285 289 289 289 293 300 312 336 357 12 24 29 32 33 32 33 38 46 51 33 4 270 273 285 300 308 315 319 324 320 307
251 252 255 256 257 257 258 260 262 265 269 272 278 285 286 287 289 289 292 300 310 323 338 352 1 9 12 14 18 21 15 346 340 329 291 286 292 303 312 317 321 324 321
260 248 248 252 258 263 266 269 269 271 272 274 276 278 281 284 286 287 287 290 294 298 304 313 322 332 340 346 354 357 344 330 333 329 302 286 285 294 304 312 323 326 323
263 263 258 253 253 257 262 268 273 275 275 276 277 276 276 278 281 282 283 285 288 290 292 296 300 306 315 323 328 325 317 316 320 315 301 291 286 285 286 289 294 298 300
254 256 261 262 265 268 269 270 271 273 275 275 276 274 273 273 275 278 280 283 286 287 287 287 287 290 297 306 309 305 303 306 306 303 297 291 287 284 282 280 280 281 280
257 254 252 255 259 264 268 270 272 273 271 271 272 271 270 270 271 274 276 279 281 283 284 284 282 281 284 292 297 298 297 295 294 295 294 293 291 287 282 279 278 277 276
254 253 252 251 253 258 262 268 272 276 276 273 270 269 267 267 268 270 272 274 276 278 280 280 279 279 280 286 292 293 291 287 286 288 291 292 293 291 288 285 281 279 277
256 253 249 248 249 253 260 266 271 274 274 273 272 269 266 264 263 265 270 272 274 276 279 280 279 278 276 277 282 287 287 284 282 285 288 292 294 295 296 294 290 285 281
260 257 254 252 251 253 257 263 267 271 272 271 269 268 267 265 262 261 263 267 270 273 275 276 275 273 271 273 277 281 283 282 281 283 285 290 294 295 296 296 294 290 285
263 262 261 260 259 257 258 261 262 264 267 269 269 267 267 267 265 262 259 259 260 264 267 269 271 269 270 271 273 276 278 277 276 278 281 286 290 293 295 295 293 290 288
262 264 264 264 264 264 263 264 262 261 262 266 269 268 266 265 265 263 261 258 257 259 261 264 267 267 267 268 269 272 274 274 271 271 275 282 287 290 293 293 293 292 290
261 260 262 263 264 264 264 264 263 262 262 264 267 268 265 263 263 262 261 258 257 258 260 264 266 268 268 264 263 266 269 270 269 269 270 275 281 287 290 291 292 291 290
260 259 259 260 261 262 263 263 263 261 260 260 264 266 266 265 264 262 260 259 258 258 259 263 265 269 268 263 260 261 264 265 266 268 269 270 273 278 284 287 290 290 289
258 258 258 258 258 259 260 260 260 260 259 260 260 263 264 265 266 265 260 257 258 258 258 260 262 267 267 261 258 259 259 260 261 264 267 270 272 275 279 282 286 287 286
253 254 254 255 255 256 256 256 256 256 256 257 259 261 263 265 270 266 263 263 262 261 261 259 259 265 266 262 257 257 257 257 257 259 263 268 272 276 277 278 279 282 284
248 248 249 250 252 253 253 253 252 251 252 253 257 262 266 269 273 269 270 268 267 266 264 263 261 265 265 266 261 258 256 254 254 256 259 263 268 274 277 276 275 276 279
247 245 245 246 247 248 249 250 250 249 250 253 257 263 267 272 276 272 272 272 268 268 266 263 264 265 263 266 264 259 255 251 250 252 255 259 264 270 275 277 276 274 273
Height
5917 5916 5916 5915 5915 5914 5913 5912 5912 5911 5910 5909 5909 5908 5907 5906 5905 5905 5904 5903 5903 5902 5902 5902 5902 5902 5902 5903 5905 5906 5907 5908 5910 5911 5912 5913 5914 5914 5914 5915 5915 5915 5915
5918 5918 5918 5917 5917 5916 5916 5915 5914 5914 5913 5912 5911 5910 5909 5908 5907 5906 5905 5905 5904 5904 5903 5903 5903 5903 5903 5903 5904 5905 5906 5907 5909 5910 5912 5912 5913 5913 5913 5913 5914 5914 5914
5919 5919 5919 5919 5919 5919 5918 5918 5917 5916 5915 5914 5914 5913 5912 5910 5909 5908 5907 5906 5906 5905 5905 5904 5904 5904 5904 5903 5904 5904 5906 5907 5908 5909 5910 5911 5911 5911 5912 5912 5912 5912 5913
5920 5920 5920 5920 5921 5920 5920 5920 5919 5919 5918 5917 5916 5915 5914 5912 5911 5910 5909 5908 5907 5906 5906 5905 5904 5904 5904 5904 5904 5904 5905 5906 5907 5908 5909 5909 5909 5909 5909 5910 5910 5911 5911
5921 5921 5922 5922 5922 5922 5922 5922 5921 5921 5920 5919 5918 5917 5916 5915 5913 5912 5911 5909 5908 5907 5906 5906 5905 5904 5904 5904 5904 5904 5905 5905 5906 5907 5907 5907 5907 5907 5907 5908 5908 5909 5909
5922 5922 5922 5922 5923 5923 5923 5923 5923 5922 5921 5921 5920 5919 5918 5917 5915 5914 5912 5911 5910 5909 5908 5906 5906 5905 5904 5903 5904 5904 5905 5905 5905 5906 5906 5906 5906 5906 5906 5907 5907 5907 5908
5922 5922 5923 5923 5923 5923 5924 5924 5924 5923 5923 5922 5921 5921 5920 5918 5917 5916 5914 5913 5912 5911 5909 5908 5907 5906 5905 5904 5904 5904 5904 5904 5905 5906 5906 5906 5905 5905 5906 5906 5906 5906 5906
5922 5922 5923 5923 5923 5923 5924 5924 5924 5924 5923 5923 5922 5921 5921 5920 5919 5917 5916 5915 5914 5913 5911 5910 5909 5907 5906 5905 5904 5904 5904 5904 5905 5905 5905 5905 5905 5905 5905 5905 5905 5905 5905
5921 5922 5922 5923 5923 5923 5923 5924 5924 5924 5923 5923 5922 5922 5921 5920 5919 5918 5917 5916 5915 5914 5913 5912 5911 5909 5908 5906 5905 5905 5904 5904 5905 5905 5905 5905 5905 5905 5905 5905 5905 5905 5905
5921 5921 5922 5922 5922 5923 5923 5923 5923 5923 5923 5923 5922 5922 5921 5920 5919 5918 5917 5917 5916 5915 5914 5913 5912 5911 5909 5908 5907 5906 5905 5905 5905 5905 5905 5905 5905 5905 5905 5905 5905 5905 5905
5920 5920 5920 5921 5921 5922 5922 5922 5922 5922 5922 5922 5922 5921 5920 5919 5919 5918 5917 5916 5915 5915 5914 5913 5912 5911 5910 5909 5908 5907 5906 5905 5905 5905 5905 5905 5905 5905 5905 5905 5905 5905 5905
5919 5919 5919 5919 5920 5920 5920 5920 5920 5920 5920 5920 5920 5920 5919 5918 5918 5917 5916 5915 5914 5914 5913 5912 5912 5911 5910 5909 5908 5907 5906 5905 5904 5904 5904 5904 5904 5904 5904 5904 5905 5905 5905
5918 5917 5917 5917 5917 5917 5918 5918 5918 5918 5918 5918 5918 5918 5917 5916 5916 5915 5914 5913 5913 5912 5912 5911 5911 5910 5909 5909 5908 5907 5906 5905 5904 5904 5904 5903 5903 5903 5903 5903 5904 5904 5904
5917 5917 5916 5915 5915 5914 5915 5915 5915 5915 5915 5915 5915 5915 5914 5913 5912 5912 5912 5911 5910 5910 5910 5909 5908 5908 5908 5907 5907 5906 5905 5904 5903 5903 5902 5902 5902 5902 5902 5902 5902 5903 5903
5914 5914 5915 5914 5913 5912 5912 5912 5912 5912 5912 5911 5911 5911 5911 5910 5909 5908 5908 5908 5907 5907 5907 5907 5906 5905 5905 5905 5905 5904 5903 5902 5902 5901 5901 5900 5900 5900 5900 5900 5900 5900 5901
5909 5909 5910 5910 5910 5909 5909 5909 5908 5908 5907 5907 5907 5907 5907 5906 5905 5904 5904 5904 5903 5903 5903 5903 5902 5901 5901 5902 5901 5900 5900 5900 5900 5899 5898 5898 5898 5897 5897 5897 5897 5897 5897
5902 5903 5904 5904 5905 5905 5904 5904 5904 5903 5903 5903 5903 5903 5902 5902 5902 5900 5899 5899 5899 5898 5898 5898 5898 5897 5897 5898 5898 5897 5897 5896 5896 5896 5895 5895 5895 5894 5894 5894 5894 5894 5894
5893 5895 5896 5897 5898 5899 5899 5899 5899 5899 5898 5898 5898 5898 5897 5897 5897 5896 5895 5894 5894 5893 5893 5893 5893 5893 5893 5893 5894 5893 5893 5892 5892 5892 5891 5891 5891 5891 5891 5891 5890 5890 5890
5885 5885 5887 5888 5890 5891 5892 5893 5893 5893 5892 5892 5892 5892 5892 5891 5890 5890 5890 5890 5889 5889 5889 5889 5889 5888 5888 5888 5888 5888 5888 5888 5888 5888 5887 5887 5887 5887 5887 5887 5886 5885 5885
5875 5876 5877 5878 5880 5882 5884 5885 5885 5886 5886 5885 5884 5885 5885 5885 5884 5883 5883 5884 5884 5884 5884 5883 5883 5882 5882 5882 5882 5882 5883 5883 5884 5884 5883 5883 5882 5882 5882 5882 5882 5881 5880
5865 5866 5867 5868 5870 5872 5873 5875 5877 5878 5878 5878 5877 5876 5876 5877 5876 5876 5876 5876 5877 5877 5877 5877 5876 5876 5876 5876 5877 5877 5877 5877 5878 5878 5879 5879 5878 5877 5877 5877 5877 5876 5875
5854 5855 5856 5858 5859 5861 5863 5865 5867 5868 5869 5870 5869 5867 5867 5867 5868 5869 5868 5868 5869 5870 5870 5870 5870 5869 5869 5869 5870 5871 5871 5872 5872 5873 5873 5874 5875 5874 5873 5873 5872 5871 5870
5842 5844 5845 5847 5849 5851 5852 5854 5856 5858 5859 5860 5860 5859 5858 5857 5858 5858 5859 5859 5861 5861 5861 5862 5863 5863 5862 5863 5863 5864 5865 5865 5866 5867 5867 5868 5869 5869 5869 5868 5867 5865 5864
5831 5832 5834 5836 5838 5840 5842 5844 5845 5847 5849 5850 5850 5849 5849 5846 5846 5848 5849 5851 5852 5853 5853 5854 5855 5855 5856 5856 5856 5857 5858 5859 5860 5861 5861 5861 5862 5863 5863 5863 5862 5860 5859
5819 5821 5824 5826 5828 5830 5832 5834 5836 5838 5840 5841 5842 5842 5842 5840 5838 5839 5840 5842 5843 5844 5845 5845 5846 5847 5848 5848 5849 5850 5851 5852 5853 5854 5855 5856 5856 5856 5856 5857 5857 5855 5854
5809 5812 5814 5816 5818 5820 5822 5824 5826 5829 5831 5833 5834 5835 5835 5835 5834 5832 5831 5833 5835 5836 5837 5838 5838 5839 5840 5840 5841 5841 5843 5844 5846 5847 5848 5849 5850 5850 5850 5849 5850 5850 5849